星链-11086 [DTC] (STARLINK-11086 [DTC] )

导读 | 豆包AI

STARLINK-11086是美国SpaceX公司星链互联网卫星星座中的一员,于2024年6月8日发射入轨。星链计划旨在通过低轨卫星星座为全球提供高速互联网服务,该卫星延续星链系列技术设计,具备低延迟通信能力,服务全球偏远地区网络覆盖,补充完善星链星座的通信网络布局。

基本信息
目录编号:
60043
目录名称:
STARLINK-11086
国际标识:
2024-112F
轨道中心:
EARTH
卫星名称:
星链-11086 [DTC]
卫星全名:
星链-11086 [DTC] (STARLINK-11086 [DTC] )
卫星状态:
在轨 (已飞行645 天)
发射日期:
2024-06-08 UTC
国别 :
美国 (US)
星等 :
--
轨道信息
数据来源 国际轨道数据
星历时间: 2026-03-15T12:27:52+0800
10小时前
查看轨道信息
半长轴: 6737.858km
偏心率: 0.0000463
轨道倾角: 53.159°
近地点辐角 77.256°
升交点赤经 239.218°
平近点角 282.851°
近地点: 359.409km
远地点: 360.033km
周期: 91.737分钟
每日圈数: 15.697123
详细信息
固有亮度:
5
最大亮度:
0.3
卫星平台:
Starlink v2.0 mini
覆盖范围:
全球
运营商:
太空探索技术公司
运营商所在国:
美国
制造商(研发单位):
太空探索技术公司
制造商所在国:
美国
使用方式:
暂无
卫星简介
星链(Starlink)计划是由太空探索技术公司(SpaceX)提出的一个巨型低轨卫星互联网星座项目,计划在2019年至2024年间在太空搭建由约1.2万颗卫星组成的“星链”网络,其中1584颗将部署在地球上空550千米处的近地轨道,并从2020年开始工作。该卫星仍在工作。
2D轨道图
3D轨道图
轨道高度分析图
轨道倾角分析图
轨道综合分析图
查看轨道综合分析图